Location: Laas
(43.4693°N, 0.3073°E)
Time: 16:07:48
(UTC+00:00)

ATLAS 5 CENTAUR R/B - Pass Details

Date: 25 October 2020
Orbit: 531 x 1127 km, 63.4° (Epoch: 22 November)

Event Time Altitude Azimuth Distance (km) Brightness Sun altitude
Rises 17:38:42 0° 272° (W) 2,760 6.9 -7.8°
Reaches altitude 10° 17:41:45 10° 297° (WNW) 1,941 5.0 -8.3°
Maximum altitude 17:44:13 15° 332° (NNW) 1,725 4.1 -8.8°
Drops below altitude 10° 17:46:52 10° 6° (N) 2,108 4.1 -9.3°
Sets 17:50:25 0° 30° (NNE) 3,162 4.8 -9.9°
